Time,TemperatureF,DewpointF,PressureIn,WindDirection,WindDirectionDegrees,WindSpeedMPH,WindSpeedGustMPH,Humidity,HourlyPrecipIn,Conditions,Clouds,dailyrainin,SoftwareType,DateUTC
2013-06-25 02:25:00,74.8,43.0,29.56,North,0,0.0,0.0,32,0.00,,---,0.00,VWS V14.00,2013-06-25 04:25:00,
2013-06-25 02:26:00,74.8,43.0,29.56,North,0,0.0,0.0,32,0.00,,---,0.00,VWS V14.00,2013-06-25 04:26:00,
2013-06-25 02:31:00,74.7,42.9,29.56,West,270,0.0,0.0,32,0.00,,---,0.00,VWS V14.00,2013-06-25 04:31:00,
2013-06-25 02:36:00,74.8,43.0,29.56,West,270,0.0,0.0,32,0.00,,---,0.00,VWS V14.00,2013-06-25 04:36:00,
2013-06-25 02:41:00,74.7,42.9,29.56,NW,315,0.0,0.0,32,0.00,,---,0.00,VWS V14.00,2013-06-25 04:41:00,
2013-06-25 02:46:00,74.8,43.0,29.59,West,270,0.0,0.0,32,0.00,,---,0.00,VWS V14.00,2013-06-25 04:46:00,
2013-06-25 02:51:00,74.7,42.9,29.59,West,270,0.0,0.0,32,0.00,,---,0.00,VWS V14.00,2013-06-25 04:51:00,
2013-06-25 02:56:00,74.7,42.9,29.59,West,270,0.0,0.0,32,0.00,,---,0.00,VWS V14.00,2013-06-25 04:56:00,
2013-06-25 03:01:00,74.7,42.9,29.59,NW,315,0.0,0.0,32,0.00,,---,0.00,VWS V14.00,2013-06-25 05:01:00,
2013-06-25 03:06:00,74.8,43.0,29.59,NW,315,0.0,0.0,32,0.00,,---,0.00,VWS V14.00,2013-06-25 05:06:00,
2013-06-25 03:11:00,74.7,42.9,29.59,WNW,292,0.0,0.0,32,0.00,,---,0.00,VWS V14.00,2013-06-25 05:11:00,
2013-06-25 03:16:00,74.8,43.0,29.59,NW,315,0.0,0.0,32,0.00,,---,0.00,VWS V14.00,2013-06-25 05:16:00,
2013-06-25 03:21:00,74.8,43.0,29.59,West,270,0.0,0.0,32,0.00,,---,0.00,VWS V14.00,2013-06-25 05:21:00,
2013-06-25 03:26:00,74.7,42.9,29.59,NW,315,0.0,0.0,32,0.00,,---,0.00,VWS V14.00,2013-06-25 05:26:00,
2013-06-25 03:31:00,74.8,43.0,29.59,WNW,292,0.0,0.0,32,0.00,,---,0.00,VWS V14.00,2013-06-25 05:31:00,
2013-06-25 03:36:00,74.8,43.0,29.59,NW,315,0.0,0.0,32,0.00,,---,0.00,VWS V14.00,2013-06-25 05:36:00,
2013-06-25 03:41:00,74.7,42.9,29.59,West,270,0.0,0.0,32,0.00,,---,0.00,VWS V14.00,2013-06-25 05:41:00,
2013-06-25 03:46:00,74.7,43.7,29.59,West,270,0.0,0.0,33,0.00,,---,0.00,VWS V14.00,2013-06-25 05:46:00,
2013-06-25 03:51:00,74.7,43.7,29.59,West,270,0.0,0.0,33,0.00,,---,0.00,VWS V14.00,2013-06-25 05:51:00,
2013-06-25 03:56:00,74.5,43.5,29.59,West,270,0.0,0.0,33,0.00,,---,0.00,VWS V14.00,2013-06-25 05:56:00,
2013-06-25 04:01:00,74.5,43.5,29.59,West,270,5.8,5.8,33,0.00,,---,0.00,VWS V14.00,2013-06-25 06:01:00,
2013-06-25 04:06:00,74.5,43.5,29.59,NW,315,0.0,0.0,33,0.00,,---,0.00,VWS V14.00,2013-06-25 06:06:00,
2013-06-25 04:11:00,74.5,43.5,29.59,West,270,0.0,0.0,33,0.00,,---,0.00,VWS V14.00,2013-06-25 06:11:00,
2013-06-25 04:16:00,74.3,43.4,29.59,West,270,0.0,0.0,33,0.00,,---,0.00,VWS V14.00,2013-06-25 06:16:00,
2013-06-25 04:21:00,74.3,43.4,29.59,WNW,292,0.0,0.0,33,0.00,,---,0.00,VWS V14.00,2013-06-25 06:21:00,
2013-06-25 04:26:00,74.3,43.4,29.59,West,270,0.0,0.0,33,0.00,,---,0.00,VWS V14.00,2013-06-25 06:26:00,
2013-06-25 04:31:00,74.3,43.4,29.56,West,270,0.0,0.0,33,0.00,,---,0.00,VWS V14.00,2013-06-25 06:31:00,
2013-06-25 04:36:00,74.3,44.1,29.56,West,270,0.0,0.0,34,0.00,,---,0.00,VWS V14.00,2013-06-25 06:36:00,
2013-06-25 04:41:00,74.3,44.1,29.56,WNW,292,0.0,0.0,34,0.00,,---,0.00,VWS V14.00,2013-06-25 06:41:00,
2013-06-25 04:46:00,74.3,44.1,29.56,NW,315,0.0,3.6,34,0.00,,---,0.00,VWS V14.00,2013-06-25 06:46:00,
2013-06-25 04:51:00,74.3,44.1,29.56,NW,315,0.0,0.0,34,0.00,,---,0.00,VWS V14.00,2013-06-25 06:51:00,
2013-06-25 04:56:00,74.3,44.1,29.56,NW,315,0.0,0.0,34,0.00,,---,0.00,VWS V14.00,2013-06-25 06:56:00,
2013-06-25 05:01:00,74.3,44.1,29.53,West,270,0.0,0.0,34,0.00,,---,0.00,VWS V14.00,2013-06-25 07:01:00,
2013-06-25 05:06:00,74.5,44.3,29.53,North,0,4.0,4.0,34,0.00,,---,0.00,VWS V14.00,2013-06-25 07:06:00,
2013-06-25 05:11:00,74.5,44.3,29.53,West,270,4.9,4.9,34,0.00,,---,0.00,VWS V14.00,2013-06-25 07:11:00,
2013-06-25 05:16:00,74.3,44.1,29.53,West,270,0.0,5.8,34,0.00,,---,0.00,VWS V14.00,2013-06-25 07:16:00,
2013-06-25 05:21:00,74.5,44.3,29.53,NW,315,4.9,4.9,34,0.00,,---,0.00,VWS V14.00,2013-06-25 07:21:00,
2013-06-25 05:26:00,74.5,45.1,29.53,NW,315,0.0,0.0,35,0.00,,---,0.00,VWS V14.00,2013-06-25 07:26:00,
2013-06-25 05:31:00,74.5,45.1,29.53,NW,315,2.7,2.7,35,0.00,,---,0.00,VWS V14.00,2013-06-25 07:31:00,
2013-06-25 05:36:00,74.5,45.1,29.53,West,270,0.0,0.0,35,0.00,,---,0.00,VWS V14.00,2013-06-25 07:36:00,
2013-06-25 05:41:00,74.3,45.7,29.53,North,0,0.0,0.0,36,0.00,,---,0.00,VWS V14.00,2013-06-25 07:41:00,
2013-06-25 05:46:00,74.3,46.4,29.53,North,0,4.9,4.9,37,0.00,,---,0.00,VWS V14.00,2013-06-25 07:46:00,
2013-06-25 05:51:00,74.5,46.5,29.53,West,270,0.0,0.0,37,0.00,,---,0.00,VWS V14.00,2013-06-25 07:51:00,
2013-06-25 05:56:00,74.5,46.5,29.53,West,270,0.0,0.0,37,0.00,,---,0.00,VWS V14.00,2013-06-25 07:56:00,
2013-06-25 06:01:00,74.5,47.2,29.53,NW,315,0.0,0.0,38,0.00,,---,0.00,VWS V14.00,2013-06-25 08:01:00,
2013-06-25 06:06:00,74.3,47.8,29.53,NW,315,0.0,4.0,39,0.00,,---,0.00,VWS V14.00,2013-06-25 08:06:00,
2013-06-25 06:11:00,74.3,48.4,29.53,North,0,0.0,0.0,40,0.00,,---,0.00,VWS V14.00,2013-06-25 08:11:00,
2013-06-25 06:16:00,74.3,49.1,29.53,West,270,0.0,4.0,41,0.00,,---,0.00,VWS V14.00,2013-06-25 08:16:00,
2013-06-25 06:21:00,74.3,49.1,29.53,West,270,0.0,0.0,41,0.00,,---,0.00,VWS V14.00,2013-06-25 08:21:00,
2013-06-25 06:26:00,74.3,49.8,29.53,West,270,0.0,0.0,42,0.00,,---,0.00,VWS V14.00,2013-06-25 08:26:00,
2013-06-25 06:31:00,74.3,49.8,29.53,West,270,3.1,3.1,42,0.00,,---,0.00,VWS V14.00,2013-06-25 08:31:00,
2013-06-25 06:36:00,74.1,49.6,29.53,SW,225,0.0,0.0,42,0.00,,---,0.00,VWS V14.00,2013-06-25 08:36:00,
2013-06-25 06:41:00,74.1,50.2,29.53,West,270,0.0,0.0,43,0.00,,---,0.00,VWS V14.00,2013-06-25 08:41:00,
2013-06-25 06:46:00,74.1,50.8,29.53,NW,315,0.0,0.0,44,0.00,,---,0.00,VWS V14.00,2013-06-25 08:46:00,
2013-06-25 06:51:00,73.9,51.3,29.53,NW,315,0.0,0.0,45,0.00,,---,0.00,VWS V14.00,2013-06-25 08:51:00,
2013-06-25 06:56:00,73.9,51.3,29.53,NNW,338,0.0,0.0,45,0.00,,---,0.00,VWS V14.00,2013-06-25 08:56:00,
2013-06-25 07:01:00,73.9,51.9,29.53,NW,315,0.0,0.0,46,0.00,,---,0.00,VWS V14.00,2013-06-25 09:01:00,
2013-06-25 07:06:00,73.9,52.5,29.53,NW,315,0.0,2.7,47,0.00,,---,0.00,VWS V14.00,2013-06-25 09:06:00,
2013-06-25 07:11:00,73.9,53.0,29.53,North,0,0.0,0.0,48,0.00,,---,0.00,VWS V14.00,2013-06-25 09:11:00,
2013-06-25 07:16:00,74.1,53.2,29.53,West,270,0.0,0.0,48,0.00,,---,0.00,VWS V14.00,2013-06-25 09:16:00,
2013-06-25 07:21:00,73.9,53.6,29.53,NW,315,0.0,0.0,49,0.00,,---,0.00,VWS V14.00,2013-06-25 09:21:00,
2013-06-25 07:26:00,74.1,53.8,29.53,West,270,0.0,0.0,49,0.00,,---,0.00,VWS V14.00,2013-06-25 09:26:00,
2013-06-25 07:31:00,74.1,54.3,29.53,NW,315,0.0,0.0,50,0.00,,---,0.00,VWS V14.00,2013-06-25 09:31:00,
2013-06-25 07:36:00,74.3,54.5,29.53,West,270,0.0,0.0,50,0.00,,---,0.00,VWS V14.00,2013-06-25 09:36:00,
2013-06-25 07:41:00,74.3,54.5,29.53,NW,315,5.8,5.8,50,0.00,,---,0.00,VWS V14.00,2013-06-25 09:41:00,
2013-06-25 07:46:00,74.5,54.6,29.53,WNW,292,0.0,0.0,50,0.00,,---,0.00,VWS V14.00,2013-06-25 09:46:00,
2013-06-25 07:51:00,74.5,54.6,29.53,West,270,0.0,0.0,50,0.00,,---,0.00,VWS V14.00,2013-06-25 09:51:00,
2013-06-25 07:56:00,74.5,55.2,29.53,NW,315,0.0,0.0,51,0.00,,---,0.00,VWS V14.00,2013-06-25 09:56:00,
2013-06-25 08:01:00,74.5,55.2,29.53,North,0,0.0,3.6,51,0.00,,---,0.00,VWS V14.00,2013-06-25 10:01:00,
2013-06-25 08:06:00,74.7,55.3,29.53,WNW,292,0.0,0.0,51,0.00,,---,0.00,VWS V14.00,2013-06-25 10:06:00,
2013-06-25 08:11:00,74.7,55.3,29.53,West,270,0.0,0.0,51,0.00,,---,0.00,VWS V14.00,2013-06-25 10:11:00,
2013-06-25 08:16:00,74.7,55.3,29.56,NW,315,0.0,0.0,51,0.00,,---,0.00,VWS V14.00,2013-06-25 10:16:00,
2013-06-25 08:21:00,74.7,55.9,29.56,NW,315,2.2,2.7,52,0.00,,---,0.00,VWS V14.00,2013-06-25 10:21:00,